SV4JYD-13 Weather Reports


time (UTC)temp
C
wind
direction
speed
KPH
gust
KPH
rain 1hr
cm
rain 24hr
cm
rain mn
cm
humidity
%
barometer
mb
20260507161523 22 164 6.4 8.0 0.00 0.00 0.00 80 1017.0
20260507160023 21 164 6.4 8.0 0.00 0.00 0.00 79 1017.0
20260507154523 22 164 6.4 8.0 0.00 0.00 0.00 78 1017.0
20260507153022 22 309 6.4 8.0 0.00 0.00 0.00 74 1017.0
20260507151522 22 309 6.4 8.0 0.00 0.00 0.00 74 1017.0
20260507150022 22 309 6.4 8.0 0.00 0.00 0.00 71 1017.0
20260507144521 21 309 6.4 8.0 0.00 0.00 0.00 70 1017.0
20260507143021 22 309 6.4 8.0 0.00 0.00 0.00 65 1017.0
20260507141521 21 309 6.4 8.0 0.00 0.00 0.00 61 1017.0
20260507140021 21 309 6.4 8.0 0.00 0.00 0.00 63 1017.0
20260507134521 22 309 6.4 8.0 0.00 0.00 0.00 63 1017.0
20260507133020 21 309 6.4 8.0 0.00 0.00 0.00 59 1017.0
20260507131520 22 309 6.4 8.0 0.00 0.00 0.00 59 1018.0
20260507130020 22 309 6.4 8.0 0.00 0.00 0.00 61 1018.0
20260507123019 22 309 6.4 8.0 0.00 0.00 0.00 62 1018.0
20260507121519 21 309 6.4 8.0 0.00 0.00 0.00 62 1018.0
20260507120018 21 309 6.4 8.0 0.00 0.00 0.00 64 1019.0
20260507114518 21 309 6.4 8.0 0.00 0.00 0.00 66 1019.0
20260507113018 21 309 6.4 8.0 0.00 0.00 0.00 69 1018.0
20260507111518 21 309 6.4 8.0 0.00 0.00 0.00 69 1018.0
20260507110017 21 309 6.4 8.0 0.00 0.00 0.00 70 1018.0
20260507104517 21 309 6.4 8.0 0.00 0.00 0.00 72 1018.0
20260507103017 21 309 6.4 8.0 0.00 0.00 0.00 70 1018.0
20260507101517 21 309 6.4 8.0 0.00 0.00 0.00 72 1018.0
20260507100016 22 309 6.4 8.0 0.00 0.00 0.00 79 1018.0
20260507094516 22 309 6.4 8.0 0.00 0.00 0.00 79 1018.0
20260507093016 20 280 1.6 1.6 0.00 0.00 0.00 75 1018.0
20260507091515 20 280 1.6 1.6 0.00 0.00 0.00 73 1018.0
20260507090015 20 280 1.6 1.6 0.00 0.00 0.00 76 1018.0
20260507084515 20 280 1.6 1.6 0.00 0.00 0.00 79 1018.0
20260507083015 20 280 1.6 1.6 0.00 0.00 0.00 83 1018.0
20260507081514 20 280 1.6 1.6 0.00 0.00 0.00 83 1018.0
20260507080014 20 280 1.6 1.6 0.00 0.00 0.00 84 1018.0
20260507074514 20 280 1.6 1.6 0.00 0.00 0.00 85 1018.0
20260507073013 20 280 3.2 1.6 0.00 0.00 0.00 85 1018.0
20260507071513 20 280 4.8 3.2 0.00 0.00 0.00 85 1018.0
20260507070014 17 292 1.6 1.6 0.00 0.00 0.00 10 1018.0
20260507064513 17 292 1.6 1.6 0.00 0.00 0.00 10 1018.0
20260507063012 17 292 1.6 1.6 0.00 0.00 0.00 10 1017.0
20260507061512 17 292 1.6 1.6 0.00 0.00 0.00 10 1017.0
20260507060012 18 292 3.2 1.6 0.00 0.00 0.00 10 1017.0
20260507054512 18 292 4.8 3.2 0.00 0.00 0.00 10 1017.0
20260507053011 15 329 1.6 1.6 0.00 0.00 0.00 10 1017.0
20260507051511 15 329 1.6 1.6 0.00 0.00 0.00 10 1017.0
20260507050011 15 329 1.6 1.6 0.00 0.00 0.00 10 1017.0
20260507044511 15 329 1.6 1.6 0.00 0.00 0.00 10 1017.0
20260507043010 15 329 1.6 1.6 0.00 0.00 0.00 99 1017.0
20260507041510 14 329 3.2 3.2 0.00 0.00 0.00 10 1017.0
20260507031732 13 310 3.2 3.2 0.00 0.00 0.00 10 1016.0
20260507030232 13 310 1.6 1.6 0.00 0.00 0.00 10 1016.0
20260507024731 13 310 3.2 3.2 0.00 0.00 0.00 10 1016.0
20260507023231 13 298 3.2 3.2 0.00 0.00 0.00 10 1016.0
20260507021731 13 298 3.2 3.2 0.00 0.00 0.00 10 1016.0
20260507020231 13 298 3.2 3.2 0.00 0.00 0.00 10 1016.0
20260507014731 13 298 3.2 3.2 0.00 0.00 0.00 10 1016.0
20260507013230 13 273 1.6 1.6 0.00 0.00 0.00 10 1016.0
20260507011729 14 273 1.6 1.6 0.00 0.00 0.00 10 1016.0
20260507010229 13 273 1.6 1.6 0.00 0.00 0.00 10 1016.0
20260507004729 13 331 1.6 1.6 0.00 0.00 0.00 10 1016.0
20260507003228 13 136 1.6 1.6 0.00 0.00 0.00 10 1016.0
20260507001728 14 136 1.6 1.6 0.00 0.00 0.00 10 1015.0
20260507000228 15 136 1.6 1.6 0.00 0.00 0.00 99 1016.0
20260506233227 14 136 1.6 1.6 0.00 0.00 0.00 10 1016.0
20260506231727 15 136 1.6 1.6 0.00 0.00 0.00 10 1016.0
20260506230227 15 136 1.6 1.6 0.00 0.00 0.00 10 1016.0
20260506224726 16 136 1.6 1.6 0.00 0.00 0.00 99 1016.0
20260506223226 16 136 1.6 1.6 0.00 0.00 0.00 99 1016.0
20260506221726 16 136 1.6 1.6 0.00 0.00 0.00 10 1016.0
20260506220226 15 136 1.6 1.6 0.00 0.00 0.00 10 1016.0
20260506214725 16 136 1.6 1.6 0.00 0.00 0.00 99 1016.0
20260506213225 16 136 1.6 1.6 0.00 0.00 0.00 98 1016.0
20260506211725 17 136 1.6 1.6 0.00 0.00 0.00 95 1016.0
20260506210225 17 136 1.6 1.6 0.00 0.00 0.00 92 1016.0
20260506204724 18 136 1.6 1.6 0.00 0.00 0.00 87 1016.0
20260506203224 18 136 1.6 1.6 0.00 0.00 0.00 79 1016.0
20260506201724 18 136 1.6 1.6 0.00 0.00 0.00 77 1016.0
20260506200224 18 136 1.6 1.6 0.00 0.00 0.00 72 1016.0
20260506194723 17 136 1.6 3.2 0.00 0.00 0.00 71 1016.0
20260506193222 19 105 1.6 1.6 0.00 0.00 0.00 74 1015.0
20260506191722 19 105 1.6 1.6 0.00 0.00 0.00 72 1015.0
20260506190222 19 105 1.6 1.6 0.00 0.00 0.00 73 1015.0
20260506184721 19 105 3.2 3.2 0.00 0.00 0.00 74 1015.0
20260506183221 18 105 4.8 4.8 0.00 0.00 0.00 75 1015.0
20260506181720 19 128 4.8 4.8 0.00 0.00 0.00 82 1015.0
20260506180219 20 135 1.6 1.6 0.00 0.00 0.00 84 1015.0
20260506174719 20 135 1.6 1.6 0.00 0.00 0.00 83 1015.0
20260506173219 20 135 1.6 1.6 0.00 0.00 0.00 87 1014.0
20260506171719 19 135 1.6 1.6 0.00 0.00 0.00 10 1014.0
20260506170218 20 135 3.2 3.2 0.00 0.00 0.00 10 1014.0
20260506164718 20 135 4.8 4.8 0.00 0.00 0.00 10 1014.0
20260506163218 22 136 6.4 8.0 0.00 0.00 0.00 71 1014.0